sat.trackr.live / text

‹ back to catalog

STARLINK-33787

NORAD 63519 · 2025-071AC

PAYLOAD ACTIVE UNKNOWN

§ Identity

Operator
Country
US
Launch date
2025-04-07
Launch site
AFWTR
Launch vehicle
Mass (kg)
RCS (m²)

Purposes: comms

External: N2YO · Heavens-Above · Gunter

§ Orbital elements

Epoch: 2026-05-25T05:02:53.407968Z

Period
94.10 min
Inclination
53.1576°
Eccentricity
0.0001048
Mean motion
15.30210854 rev/d
Perigee alt
474.5 km
Apogee alt
475.9 km
Semi-major
6,853.3 km
B*
5.5833e-4
RAAN
146.7168°
Arg perigee
88.1068°
Mean anomaly
272.0053°
Rev number
6,408

§ Raw data

STARLINK-337871 63519U 25071AC  26145.21034037  .00016219  00000+0  55833-3 0  99922 63519  53.1576 146.7168 0001048  88.1068 272.0053 15.30210854 64086

JSON: /api/v1/satellites/63519 · /tle

For live sub-satellite position, see the globe view (requires WebGL).

§ Visibility from observer

Set your observer location to see the next 7 days of passes ≥ 10°. The values pass through the URL so the page stays shareable.

No JS? Fill the form by hand. The geolocation button needs JavaScript.